DW3794 Weather Reports


time (UTC)temp
C
wind
direction
speed
KPH
gust
KPH
rain 1hr
cm
rain 24hr
cm
rain mn
cm
humidity
%
barometer
mb
20260905060015 14 171 4.8 6.4 0.00 0.00 0.00 47 1006.2
20260905054601 13 169 3.2 9.7 0.00 0.00 0.00 47 1006.1
20260905053053 16 168 8.0 11.3 0.00 0.00 0.00 39 1005.9
20260905051541 17 167 1.6 6.4 0.00 0.00 0.00 32 1005.9
20260905050042 16 167 0.0 11.3 0.00 0.00 0.00 34 1005.9
20260905044518 16 168 17.7 22.5 0.00 0.00 0.00 37 1005.7
20260905043009 15 168 17.7 20.9 0.00 0.00 0.00 39 1005.8
20260905041555 14 167 12.9 16.1 0.00 0.00 0.00 42 1005.8
20260905040051 15 168 9.7 16.1 0.00 0.00 0.00 40 1005.7
20260905034533 14 167 11.3 14.5 0.00 0.00 0.00 44 1005.5
20260905033026 13 168 12.9 14.5 0.00 0.00 0.00 45 1005.5
20260905031508 14 168 11.3 16.1 0.00 0.00 0.00 44 1005.4
20260905030004 14 168 9.7 14.5 0.00 0.00 0.00 42 1005.2
20260905024546 14 168 11.3 16.1 0.00 0.00 0.00 45 1005.1
20260905023046 15 171 9.7 14.5 0.00 0.00 0.00 43 1004.9
20260905021528 16 171 11.3 14.5 0.00 0.00 0.00 38 1004.7
20260905020028 18 171 8.0 12.9 0.00 0.00 0.00 34 1004.6
20260905014510 20 171 16.1 25.7 0.00 0.00 0.00 27 1004.4
20260905013009 22 171 16.1 24.1 0.00 0.00 0.00 26 1004.3
20260905011556 23 171 16.1 30.6 0.00 0.00 0.00 24 1004.3
20260905010106 23 171 20.9 30.6 0.00 0.00 0.00 22 1004.3
20260905004534 23 171 17.7 35.4 0.00 0.00 0.00 23 1004.2
20260905003034 25 171 14.5 30.6 0.00 0.00 0.00 25 1004.3
20260905001517 25 171 27.4 38.6 0.00 0.00 0.00 21 1004.1
20260905000016 25 171 24.1 54.7 0.00 0.00 0.00 20 1004.1
20260904234557 25 171 33.8 43.5 0.00 0.00 0.00 19 1004.1
20260904233057 25 171 22.5 35.4 0.00 0.00 0.00 20 1004.0
20260904231539 26 171 25.7 37.0 0.00 0.00 0.00 19 1003.9
20260904230040 26 171 22.5 41.8 0.00 0.00 0.00 19 1004.0
20260904224531 26 171 19.3 40.2 0.00 0.00 0.00 18 1003.6
20260904223027 26 171 22.5 40.2 0.00 0.00 0.00 19 1003.8
20260904221533 26 171 14.5 29.0 0.00 0.00 0.00 20 1003.9
20260904220024 26 171 12.9 24.1 0.00 0.00 0.00 23 1004.0
20260904214523 26 171 14.5 37.0 0.00 0.00 0.00 18 1004.0
20260904213029 26 171 17.7 29.0 0.00 0.00 0.00 20 1004.0
20260904211522 26 171 27.4 41.8 0.00 0.00 0.00 19 1004.0
20260904210025 26 171 22.5 45.1 0.00 0.00 0.00 20 1004.2
20260904204521 26 171 20.9 46.7 0.00 0.00 0.00 23 1004.1
20260904203009 26 171 19.3 35.4 0.00 0.00 0.00 18 1004.2
20260904201502 26 171 22.5 40.2 0.00 0.00 0.00 20 1004.4
20260904200045 25 171 29.0 40.2 0.00 0.00 0.00 21 1004.4
20260904194543 26 171 27.4 38.6 0.00 0.00 0.00 21 1004.6
20260904193028 25 171 24.1 41.8 0.00 0.00 0.00 23 1004.4
20260904191522 25 171 24.1 37.0 0.00 0.00 0.00 21 1004.5
20260904190009 24 171 19.3 38.6 0.00 0.00 0.00 23 1004.5
20260904184504 25 171 20.9 35.4 0.00 0.00 0.00 19 1004.8
20260904183046 24 171 22.5 35.4 0.00 0.00 0.00 20 1004.9
20260904181547 24 171 25.7 35.4 0.00 0.00 0.00 19 1004.9
20260904180026 25 171 12.9 24.1 0.00 0.00 0.00 20 1005.1
20260904174524 23 171 20.9 33.8 0.00 0.00 0.00 21 1005.0
20260904173007 23 171 17.7 35.4 0.00 0.00 0.00 23 1004.9
20260904171505 23 171 22.5 35.4 0.00 0.00 0.00 20 1005.0
20260904170046 23 171 12.9 32.2 0.00 0.00 0.00 27 1005.0
20260904164541 21 171 4.8 9.7 0.00 0.00 0.00 29 1004.9
20260904163023 20 171 4.8 11.3 0.00 0.00 0.00 31 1005.1
20260904161516 19 171 3.2 9.7 0.00 0.00 0.00 33 1005.0
20260904160055 18 171 4.8 8.0 0.00 0.00 0.00 39 1005.1
20260904154554 17 171 6.4 14.5 0.00 0.00 0.00 38 1005.0
20260904153030 16 171 3.2 11.3 0.00 0.00 0.00 42 1004.9
20260904151529 15 171 3.2 9.7 0.00 0.00 0.00 43 1005.1
20260904150028 14 171 4.8 9.7 0.00 0.00 0.00 49 1005.1
20260904144509 13 171 8.0 17.7 0.00 0.00 0.00 52 1005.2
20260904143050 12 171 6.4 19.3 0.00 0.00 0.00 54 1005.1
20260904141548 11 171 6.4 12.9 0.00 0.00 0.00 55 1005.1
20260904140031 11 170 4.8 11.3 0.00 0.00 0.00 57 1005.2
20260904134522 9 170 1.6 4.8 0.00 0.00 0.00 64 1004.9
20260904133001 7 171 0.0 6.4 0.00 0.00 0.00 69 1004.8
20260904131557 7 170 8.0 12.9 0.00 0.00 0.00 65 1005.0
20260904130048 7 171 9.7 14.5 0.00 0.00 0.00 63 1005.0
20260904124538 7 171 9.7 14.5 0.00 0.00 0.00 65 1005.0
20260904123016 7 171 3.2 8.0 0.00 0.00 0.00 62 1004.9
20260904121516 7 171 8.0 12.9 0.00 0.00 0.00 62 1004.5
20260904120057 8 171 1.6 14.5 0.00 0.00 0.00 62 1004.5
20260904114555 7 171 8.0 20.9 0.00 0.00 0.00 62 1004.1
20260904113037 7 171 4.8 12.9 0.00 0.00 0.00 66 1004.2
20260904111540 7 171 8.0 14.5 0.00 0.00 0.00 65 1004.1
20260904110016 7 171 1.6 14.5 0.00 0.00 0.00 65 1003.8
20260904104514 7 166 3.2 6.4 0.00 0.00 0.00 65 1004.0
20260904103055 7 166 8.0 12.9 0.00 0.00 0.00 64 1003.7
20260904101553 8 165 8.0 12.9 0.00 0.00 0.00 63 1003.8
20260904100035 8 163 8.0 9.7 0.00 0.00 0.00 58 1003.7
20260904094533 7 165 3.2 8.0 0.00 0.00 0.00 63 1003.5
20260904093015 8 163 4.8 6.4 0.00 0.00 0.00 59 1003.4
20260904091515 8 159 3.2 11.3 0.00 0.00 0.00 57 1003.4
20260904090058 8 157 8.0 11.3 0.00 0.00 0.00 58 1003.4
20260904084558 9 165 8.0 16.1 0.00 0.00 0.00 58 1003.5
20260904083038 8 165 3.2 11.3 0.00 0.00 0.00 59 1003.6
20260904081537 8 165 9.7 11.3 0.00 0.00 0.00 58 1003.6
20260904080018 8 169 8.0 11.3 0.00 0.00 0.00 61 1003.8
20260904074521 8 170 9.7 11.3 0.00 0.00 0.00 59 1003.7
20260904073102 7 170 6.4 9.7 0.00 0.00 0.00 66 1003.8
20260904071555 10 165 4.8 8.0 0.00 0.00 0.00 58 1003.8
20260904070035 10 164 6.4 9.7 0.00 0.00 0.00 50 1003.7
20260904064531 11 164 8.0 9.7 0.00 0.00 0.00 47 1003.7
20260904063014 12 165 9.7 11.3 0.00 0.00 0.00 44 1003.7
20260904061522 13 163 0.0 9.7 0.00 0.00 0.00 42 1003.5